Weather History for KUAO - April, 2013

Change the Weather History Date:

Tuesday, April 9, 2013

  Actual Average Record
Temperature  
Mean Temperature 47 °F -  
Max Temperature 56 °F - 77 °F (2004)
Min Temperature 38 °F - 33 °F (1997)
Degree Days  
Heating Degree Days 18    
Month to date heating degree days 113  
Since 1 July heating degree days 3767  
Cooling Degree Days 0    
Month to date cooling degree days 0  
Year to date cooling degree days 0  
Moisture  
Dew Point 41 °F    
Average Humidity 81    
Maximum Humidity 100    
Minimum Humidity 61    
Precipitation  
Precipitation 0.00 in - 0.36 in (2002)
Month to date precipitation 1.40  
Year to date precipitation 7.41  
Sea Level Pressure  
Sea Level Pressure 30.34 in    
Wind  
Wind Speed 1 mph (SE)    
Max Wind Speed 6 mph    
Max Gust Speed 8 mph    
Visibility 10 miles    
Events      
T = Trace of Precipitation, MM = Missing Value Source: NWS Daily Summary

Daily Weather History Graph

Daily Weather History Graph

Search for Another Location

Airport or City:

Trip Planner

Search our weather history database for the weather conditions in past years. The results will help you decide how hot, cold, wet, or windy it might be!

Date:

Astronomy

Apr. 09, 2013 Rise Set
Actual Time 6:36 AM PDT 7:49 PM PDT
Civil Twilight 6:05 AM PDT 8:20 PM PDT
Nautical Twilight 5:29 AM PDT 8:56 PM PDT
Astronomical Twilight 4:50 AM PDT 9:35 PM PDT
Moon 6:02 AM PDT (4/9) 7:31 PM PDT (4/9)
Length of Visible Light 14h 14m
Length of Day
13h 13m
Waning Crescent, 0% of the Moon is Illuminated
Apr 9
Waning Crescent
Apr 10
New
Apr 18
First Quarter
Apr 25
Full
May 2
Last Quarter

Hourly Weather History & Observations

Time (PDT) Temp. Windchill Dew Point Humidity Pressure Visibility Wind Dir Wind Speed Gust Speed Precip Events Conditions
12:53 AM 43.0 °F - 39.0 °F 86% 30.32 in 10.0 mi Calm Calm - N/A   Mostly Cloudy
1:53 AM 39.9 °F - 37.9 °F 93% 30.33 in 10.0 mi Calm Calm - N/A   Clear
2:53 AM 39.0 °F - 37.9 °F 96% 30.34 in 10.0 mi Calm Calm - N/A   Scattered Clouds
3:23 AM 39.2 °F 37.0 °F 37.4 °F 93% 30.32 in 10.0 mi NNE 3.5 mph - N/A   Mostly Cloudy
3:53 AM 41.0 °F - 41.0 °F 100% 30.33 in 10.0 mi Calm Calm - N/A   Mostly Cloudy
4:53 AM 42.1 °F - 41.0 °F 96% 30.34 in 10.0 mi Calm Calm - N/A   Overcast
5:27 AM 41.0 °F - 39.2 °F 93% 30.35 in 10.0 mi Calm Calm - N/A   Mostly Cloudy
5:38 AM 41.0 °F - 39.2 °F 93% 30.35 in 10.0 mi Calm Calm - N/A   Mostly Cloudy
5:53 AM 41.0 °F - 39.9 °F 96% 30.35 in 10.0 mi Calm Calm - N/A   Mostly Cloudy
6:19 AM 41.0 °F - 39.2 °F 93% 30.35 in 10.0 mi Calm Calm - N/A   Mostly Cloudy
6:44 AM 41.0 °F - 39.2 °F 93% 30.35 in 10.0 mi Calm Calm - N/A   Scattered Clouds
6:53 AM 42.1 °F - 39.9 °F 92% 30.35 in 10.0 mi Calm Calm - N/A   Partly Cloudy
7:53 AM 43.0 °F - 39.9 °F 89% 30.35 in 10.0 mi Calm Calm - N/A   Partly Cloudy
8:53 AM 44.1 °F - 41.0 °F 89% 30.37 in 10.0 mi Calm Calm - N/A   Overcast
9:53 AM 46.0 °F - 42.1 °F 86% 30.38 in 10.0 mi Calm Calm - N/A   Overcast
10:53 AM 48.9 °F - 41.0 °F 74% 30.38 in 10.0 mi Variable 3.5 mph - N/A   Overcast
11:53 AM 50.0 °F - 42.1 °F 74% 30.38 in 10.0 mi Variable 3.5 mph - N/A   Overcast
12:53 PM 51.1 °F - 42.1 °F 71% 30.37 in 10.0 mi Calm Calm - N/A   Overcast
1:53 PM 52.0 °F - 41.0 °F 66% 30.36 in 10.0 mi SSE 3.5 mph - N/A   Overcast
2:53 PM 54.0 °F - 42.1 °F 64% 30.35 in 10.0 mi Calm Calm - N/A   Overcast
3:53 PM 55.0 °F - 42.1 °F 62% 30.34 in 10.0 mi Variable 3.5 mph - N/A   Overcast
4:53 PM 55.0 °F - 42.1 °F 62% 30.33 in 10.0 mi West 3.5 mph - N/A   Overcast
5:53 PM 55.0 °F - 43.0 °F 64% 30.32 in 10.0 mi Calm Calm - N/A   Overcast
6:53 PM 55.0 °F - 43.0 °F 64% 30.31 in 10.0 mi Calm Calm - N/A   Overcast
7:53 PM 55.0 °F - 44.1 °F 67% 30.29 in 10.0 mi Calm Calm - N/A   Overcast
8:53 PM 53.1 °F - 46.9 °F 80% 30.29 in 10.0 mi Calm Calm - N/A   Overcast
9:53 PM 53.1 °F - 46.9 °F 80% 30.30 in 10.0 mi Calm Calm - N/A   Overcast
10:53 PM 53.1 °F - 46.0 °F 77% 30.28 in 10.0 mi ESE 3.5 mph - N/A   Overcast
11:53 PM 53.1 °F - 46.9 °F 80% 30.26 in 10.0 mi Calm Calm - N/A   Overcast